�������l�o���
Date,Time,MP-1(��Sv/h),MP-2(��Sv/h),MP-3(��Sv/h),MP-4(��Sv/h),MP-5(��Sv/h),MP-6(��Sv/h),MP-7(��Sv/h),MP-8(��Sv/h),����,����(m/s),���J
2017/06/13,00:00,0.997,1.590,1.057,1.887,1.301,0.532,0.977,0.902,�k��,1.5,��
2017/06/13,00:10,0.998,1.591,1.057,1.887,1.301,0.531,0.977,0.901,���k��,1.7,��
2017/06/13,00:20,0.996,1.590,1.058,1.887,1.298,0.532,0.978,0.902,���k��,1.7,��
2017/06/13,00:30,1.000,1.589,1.058,1.888,1.299,0.531,0.976,0.901,�k�k��,1.4,��
2017/06/13,00:40,0.996,1.588,1.057,1.886,1.297,0.531,0.977,0.902,�k�k��,1.4,��
2017/06/13,00:50,0.999,1.590,1.058,1.889,1.296,0.532,0.977,0.901,���쐼,1.5,��
2017/06/13,01:00,0.998,1.591,1.059,1.886,1.300,0.530,0.978,0.901,�쐼,1.4,��
2017/06/13,01:10,0.999,1.593,1.059,1.887,1.297,0.530,0.975,0.901,��,1.1,��
2017/06/13,01:20,1.000,1.590,1.058,1.886,1.296,0.531,0.977,0.900,�쐼,1.4,��
2017/06/13,01:30,0.999,1.589,1.057,1.887,1.297,0.531,0.977,0.903,�쐼,1.1,��
2017/06/13,01:40,0.998,1.590,1.058,1.888,1.299,0.530,0.975,0.902,�쐼,0.9,��
2017/06/13,01:50,0.998,1.591,1.058,1.883,1.297,0.530,0.977,0.901,�쐼,1.2,��
2017/06/13,02:00,0.998,1.587,1.056,1.887,1.298,0.530,0.976,0.903,�쐼,0.9,��
2017/06/13,02:10,0.998,1.590,1.055,1.887,1.298,0.529,0.977,0.901,���쐼,1.5,��
2017/06/13,02:20,0.996,1.589,1.056,1.889,1.297,0.531,0.977,0.904,�쐼,1.7,��
2017/06/13,02:30,0.997,1.589,1.056,1.884,1.297,0.530,0.975,0.900,���쐼,1.5,��
2017/06/13,02:40,0.997,1.590,1.057,1.887,1.298,0.531,0.976,0.900,���쐼,1.4,��
2017/06/13,02:50,0.997,1.591,1.057,1.883,1.300,0.529,0.975,0.901,��쐼,1.7,��
2017/06/13,03:00,0.996,1.589,1.058,1.889,1.298,0.529,0.976,0.902,�쐼,2.3,��
2017/06/13,03:10,0.997,1.588,1.056,1.887,1.297,0.529,0.978,0.901,���쐼,1.5,��
2017/06/13,03:20,0.997,1.587,1.057,1.885,1.297,0.529,0.976,0.900,��,1.2,��
2017/06/13,03:30,0.997,1.589,1.059,1.883,1.299,0.531,0.975,0.901,���k��,1.7,��
2017/06/13,03:40,0.995,1.588,1.058,1.887,1.295,0.529,0.976,0.903,��,1.2,��
2017/06/13,03:50,0.995,1.589,1.057,1.889,1.297,0.529,0.976,0.901,���k��,1.7,��
2017/06/13,04:00,0.996,1.588,1.056,1.888,1.296,0.530,0.974,0.901,���k��,1.1,��
2017/06/13,04:10,0.995,1.587,1.055,1.885,1.296,0.529,0.975,0.901,�k��,0.9,��
2017/06/13,04:20,0.995,1.586,1.056,1.885,1.297,0.530,0.977,0.901,�k�k��,1.5,��
2017/06/13,04:30,0.995,1.588,1.058,1.890,1.297,0.530,0.976,0.902,�k��,1.4,��
2017/06/13,04:40,0.993,1.585,1.059,1.889,1.296,0.530,0.976,0.902,�k��,2.2,��
2017/06/13,04:50,0.995,1.586,1.054,1.886,1.296,0.529,0.977,0.901,�k��,2.6,��
2017/06/13,05:00,0.996,1.590,1.058,1.888,1.295,0.529,0.975,0.902,�k�k��,3.1,��
2017/06/13,05:10,0.996,1.589,1.056,1.889,1.295,0.529,0.977,0.902,�k�k��,2.6,��
2017/06/13,05:20,0.996,1.590,1.057,1.885,1.297,0.530,0.975,0.902,�k��,2.3,��
2017/06/13,05:30,0.996,1.587,1.058,1.886,1.297,0.530,0.976,0.902,�k��,2.3,��
2017/06/13,05:40,0.997,1.591,1.059,1.887,1.296,0.530,0.978,0.902,���k��,2.3,��
2017/06/13,05:50,0.998,1.588,1.062,1.887,1.298,0.530,0.978,0.902,�k��,2.0,��
2017/06/13,06:00,0.997,1.590,1.060,1.890,1.298,0.531,0.977,0.903,�k��,1.7,��
2017/06/13,06:10,0.997,1.592,1.059,1.888,1.300,0.531,0.976,0.903,�k�k��,1.4,��
2017/06/13,06:20,1.000,1.593,1.056,1.890,1.299,0.532,0.973,0.903,�k�k��,1.7,��
2017/06/13,06:30,1.000,1.591,1.058,1.887,1.301,0.532,0.979,0.904,�k�k��,2.0,��
2017/06/13,06:40,0.999,1.594,1.058,1.888,1.300,0.532,0.978,0.905,�k��,1.5,��
2017/06/13,06:50,1.001,1.594,1.058,1.890,1.299,0.530,0.979,0.904,���쓌,0.9,��
2017/06/13,07:00,1.000,1.594,1.061,1.890,1.302,0.531,0.979,0.905,���쓌,0.6,��
2017/06/13,07:10,1.001,1.586,1.061,1.890,1.300,0.531,0.976,0.905,��,0.8,��
2017/06/13,07:20,0.999,1.593,1.062,1.891,1.301,0.531,0.978,0.905,�k,0.9,��
2017/06/13,07:30,1.000,1.591,1.061,1.892,1.302,0.530,0.974,0.906,�k��,1.1,��
2017/06/13,07:40,1.001,1.595,1.062,1.891,1.302,0.530,0.977,0.905,-,CALM,��
2017/06/13,07:50,1.000,1.592,1.062,1.892,1.303,0.530,0.977,0.904,���쓌,0.9,��
2017/06/13,08:00,1.000,1.594,1.062,1.895,1.302,0.530,0.975,0.905,-,CALM,��
2017/06/13,08:10,1.001,1.593,1.062,1.893,1.301,0.530,0.977,0.905,��쓌,1.5,��
2017/06/13,08:20,1.002,1.594,1.060,1.894,1.303,0.527,0.975,0.904,��쓌,1.5,��
2017/06/13,08:30,1.001,1.593,1.062,1.894,1.305,0.530,0.976,0.903,���쓌,0.9,��
2017/06/13,08:40,1.002,1.597,1.063,1.894,1.301,0.529,0.977,0.901,�쓌,1.1,��
2017/06/13,08:50,1.004,1.595,1.064,1.894,1.303,0.531,0.978,0.902,��쓌,1.1,��
2017/06/13,09:00,1.004,1.595,1.061,1.894,1.304,0.529,0.978,0.906,��쓌,1.4,��
2017/06/13,09:10,1.003,1.597,1.065,1.893,1.306,0.530,0.979,0.903,�쓌,1.9,��
2017/06/13,09:20,1.002,1.599,1.058,1.896,1.306,0.530,0.977,0.903,�쓌,2.0,��
2017/06/13,09:30,1.003,1.598,1.053,1.895,1.303,0.531,0.976,0.904,�쓌,2.6,��
2017/06/13,09:40,1.002,1.597,1.056,1.896,1.304,0.531,0.979,0.903,���쓌,1.1,��
2017/06/13,09:50,1.001,1.601,1.059,1.897,1.305,0.530,0.980,0.903,�쓌,2.0,��
2017/06/13,10:00,1.002,1.599,1.061,1.896,1.308,0.530,0.977,0.903,�쓌,2.0,��
2017/06/13,10:10,1.004,1.602,1.061,1.901,1.307,0.531,0.979,0.903,�쓌,2.9,��
2017/06/13,10:20,1.004,1.600,1.061,1.896,1.307,0.530,0.979,0.901,�쓌,3.0,��
2017/06/13,10:30,1.001,1.603,1.060,1.895,1.308,0.532,0.980,0.903,�쓌,2.6,��
2017/06/13,10:40,1.005,1.600,1.059,1.897,1.309,0.531,0.977,0.903,��쓌,3.2,��
2017/06/13,10:50,1.005,1.600,1.062,1.898,1.308,0.532,0.980,0.902,�쓌,3.6,��
2017/06/13,11:00,1.004,1.599,1.062,1.900,1.309,0.529,0.979,0.903,��쓌,5.3,��
2017/06/13,11:10,1.006,1.598,1.061,1.897,1.308,0.531,0.979,0.904,��쓌,4.8,��
2017/06/13,11:20,1.004,1.599,1.061,1.900,1.310,0.531,0.979,0.904,��쓌,3.8,��
2017/06/13,11:30,1.005,1.600,1.061,1.899,1.307,0.530,0.980,0.902,��쓌,4.6,��
2017/06/13,11:40,1.005,1.599,1.061,1.899,1.309,0.530,0.978,0.902,�쓌,4.4,��
2017/06/13,11:50,1.006,1.601,1.063,1.898,1.312,0.531,0.978,0.904,�쓌,4.6,��
2017/06/13,12:00,1.007,1.601,1.063,1.902,1.309,0.532,0.980,0.902,�쓌,4.2,��
2017/06/13,12:10,1.004,1.598,1.063,1.902,1.311,0.533,0.980,0.903,�쓌,4.0,��
2017/06/13,12:20,1.006,1.601,1.064,1.902,1.313,0.531,0.979,0.904,��쓌,3.6,��
2017/06/13,12:30,1.005,1.604,1.066,1.899,1.313,0.532,0.981,0.903,�쓌,3.3,��
2017/06/13,12:40,1.007,1.603,1.067,1.903,1.314,0.534,0.982,0.903,�쓌,3.2,��
2017/06/13,12:50,1.006,1.604,1.066,1.902,1.312,0.532,0.979,0.903,��쓌,4.1,��
2017/06/13,13:00,1.010,1.607,1.064,1.900,1.312,0.534,0.979,0.904,��쓌,4.8,��
2017/06/13,13:10,1.008,1.607,1.064,1.903,1.315,0.532,0.980,0.904,�쓌,4.7,��
2017/06/13,13:20,1.009,1.606,1.059,1.900,1.314,0.533,0.979,0.901,�쓌,4.8,��
2017/06/13,13:30,1.010,1.610,1.063,1.897,1.316,0.534,0.980,0.904,��쓌,3.9,��
2017/06/13,13:40,1.010,1.611,1.065,1.900,1.316,0.534,0.981,0.902,��쓌,4.4,��
2017/06/13,13:50,1.010,1.608,1.063,1.901,1.315,0.531,0.982,0.904,��쓌,4.7,��
2017/06/13,14:00,1.009,1.612,1.065,1.901,1.316,0.533,0.981,0.903,��쓌,5.9,��
2017/06/13,14:10,1.011,1.611,1.066,1.901,1.314,0.531,0.979,0.902,��쓌,5.6,��
2017/06/13,14:20,1.011,1.611,1.064,1.906,1.315,0.533,0.982,0.903,�쓌,5.7,��
2017/06/13,14:30,1.010,1.610,1.064,1.901,1.316,0.534,0.980,0.904,�쓌,3.9,��
2017/06/13,14:40,1.008,1.613,1.064,1.902,1.320,0.534,0.978,0.904,�쓌,5.6,��
2017/06/13,14:50,1.010,1.614,1.067,1.905,1.316,0.534,0.979,0.905,�쓌,5.5,��
2017/06/13,15:00,1.010,1.616,1.065,1.906,1.317,0.534,0.981,0.904,��쓌,5.9,��
2017/06/13,15:10,1.011,1.612,1.065,1.903,1.320,0.534,0.979,0.904,��쓌,6.6,��
2017/06/13,15:20,1.011,1.614,1.063,1.905,1.316,0.535,0.980,0.903,��쓌,6.2,��
2017/06/13,15:30,1.014,1.614,1.065,1.903,1.317,0.534,0.984,0.905,��쓌,7.3,��
2017/06/13,15:40,1.011,1.613,1.066,1.898,1.319,0.534,0.980,0.903,��쓌,7.0,��
2017/06/13,15:50,1.013,1.617,1.068,1.896,1.317,0.536,0.981,0.904,��쓌,7.6,��
2017/06/13,16:00,1.010,1.615,1.067,1.899,1.316,0.535,0.980,0.902,��쓌,6.1,��
2017/06/13,16:10,1.011,1.615,1.067,1.904,1.310,0.534,0.983,0.903,��쓌,6.0,��
2017/06/13,16:20,1.011,1.614,1.067,1.907,1.308,0.534,0.981,0.903,��쓌,6.0,��
2017/06/13,16:30,1.012,1.616,1.060,1.904,1.311,0.535,0.980,0.904,��쓌,5.8,��
2017/06/13,16:40,1.011,1.618,1.068,1.904,1.309,0.535,0.978,0.905,��,5.3,��
2017/06/13,16:50,1.011,1.616,1.066,1.908,1.320,0.535,0.982,0.902,��쓌,6.0,��
2017/06/13,17:00,1.012,1.618,1.067,1.906,1.318,0.536,0.981,0.902,��쓌,5.7,��
2017/06/13,17:10,1.012,1.616,1.069,1.907,1.321,0.535,0.980,0.903,��쓌,6.0,��
2017/06/13,17:20,1.009,1.619,1.065,1.904,1.317,0.535,0.982,0.904,��,7.4,��
2017/06/13,17:30,1.013,1.618,1.066,1.906,1.320,0.536,0.981,0.902,��쓌,8.3,��
2017/06/13,17:40,1.012,1.617,1.067,1.904,1.317,0.535,0.981,0.906,��,7.6,��
2017/06/13,17:50,1.011,1.617,1.068,1.908,1.319,0.535,0.980,0.905,��,6.4,��
2017/06/13,18:00,1.012,1.618,1.066,1.907,1.320,0.536,0.980,0.906,��,6.0,��
2017/06/13,18:10,1.013,1.616,1.069,1.908,1.322,0.536,0.982,0.905,��,6.7,��
2017/06/13,18:20,1.010,1.619,1.069,1.910,1.322,0.535,0.981,0.904,��,5.6,��
2017/06/13,18:30,1.011,1.618,1.070,1.910,1.321,0.536,0.981,0.905,��쓌,5.3,��
2017/06/13,18:40,1.013,1.618,1.070,1.908,1.319,0.537,0.982,0.907,��,5.3,��
2017/06/13,18:50,1.011,1.619,1.072,1.908,1.323,0.536,0.980,0.909,��,5.9,��
2017/06/13,19:00,1.015,1.621,1.070,1.911,1.321,0.538,0.980,0.907,��,6.4,��
2017/06/13,19:10,1.014,1.620,1.071,1.904,1.325,0.538,0.980,0.906,��,6.8,��
2017/06/13,19:20,1.011,1.620,1.071,1.906,1.323,0.539,0.979,0.905,��,6.9,��
2017/06/13,19:30,1.012,1.623,1.072,1.909,1.323,0.538,0.982,0.908,��,6.2,��
2017/06/13,19:40,1.014,1.620,1.070,1.907,1.321,0.537,0.983,0.907,��,5.9,��
2017/06/13,19:50,1.015,1.622,1.071,1.908,1.325,0.539,0.984,0.907,��,4.3,��
2017/06/13,20:00,1.011,1.621,1.068,1.906,1.322,0.537,0.982,0.906,��,4.7,��
2017/06/13,20:10,1.011,1.621,1.070,1.908,1.325,0.537,0.984,0.908,��,5.2,��
2017/06/13,20:20,1.016,1.619,1.070,1.908,1.321,0.539,0.986,0.908,��,5.0,��
2017/06/13,20:30,1.014,1.619,1.070,1.909,1.326,0.537,0.984,0.907,��,5.0,��
2017/06/13,20:40,1.015,1.622,1.070,1.908,1.322,0.537,0.983,0.909,��,6.0,��
2017/06/13,20:50,1.017,1.619,1.071,1.907,1.326,0.539,0.984,0.905,��,5.2,��
2017/06/13,21:00,1.015,1.620,1.072,1.910,1.323,0.538,0.984,0.909,��,5.4,��
2017/06/13,21:10,1.015,1.622,1.068,1.908,1.324,0.536,0.984,0.907,��,5.7,��
2017/06/13,21:20,1.013,1.619,1.070,1.908,1.325,0.537,0.984,0.908,��,6.7,��
2017/06/13,21:30,1.015,1.621,1.070,1.906,1.325,0.536,0.985,0.906,��쓌,6.4,��
2017/06/13,21:40,1.015,1.617,1.071,1.908,1.325,0.537,0.987,0.907,��쓌,7.7,��
2017/06/13,21:50,1.015,1.621,1.073,1.908,1.324,0.537,0.983,0.907,��쓌,7.8,��
2017/06/13,22:00,1.015,1.622,1.069,1.907,1.323,0.538,0.985,0.906,��,6.3,��
2017/06/13,22:10,1.017,1.622,1.070,1.908,1.323,0.537,0.982,0.908,��,5.9,��
2017/06/13,22:20,1.014,1.621,1.071,1.908,1.323,0.537,0.983,0.909,��,5.2,��
2017/06/13,22:30,1.015,1.619,1.070,1.908,1.324,0.538,0.984,0.907,��,6.0,��
2017/06/13,22:40,1.016,1.622,1.071,1.907,1.322,0.537,0.985,0.908,��,5.5,��
2017/06/13,22:50,1.014,1.618,1.070,1.907,1.325,0.536,0.983,0.908,��쓌,6.3,��
2017/06/13,23:00,1.014,1.619,1.071,1.907,1.323,0.538,0.984,0.906,��쓌,6.6,��
2017/06/13,23:10,1.015,1.620,1.070,1.906,1.323,0.538,0.985,0.906,��,6.2,��
2017/06/13,23:20,1.016,1.618,1.070,1.905,1.324,0.538,0.984,0.905,��,5.9,��
2017/06/13,23:30,1.015,1.615,1.070,1.909,1.323,0.536,0.985,0.905,��,4.9,��
2017/06/13,23:40,1.013,1.619,1.070,1.908,1.321,0.537,0.984,0.905,��,3.5,��
2017/06/13,23:50,1.014,1.618,1.071,1.907,1.324,0.538,0.983,0.907,��,2.3,��
